Starlink 4458

operational
NORAD ID: 53668 Int'l Des: 2022-105 Owner: SPXS Country: US Constellation: starlink
LEOCIRCULARRETROGRADESSO

Starlink 4458について

説明を読み込み中...

リアルタイム位置

3D地球を読み込み中...

次回通過

高度履歴

Altitude vs Time

uPlot chart will show altitude changes over time

軌道要素

1 53668U 22105W 25259.65081487 -.00000768 00000-0 -55295-4 0 9993
2 53668 97.6035 139.7992 0001256 93.0638 267.0730 15.01256829167124
Epoch: Sep 16, 2025 • Age: 24 hours

現在のステータス

高度 575.2 km
速度 7.58 km/s
衛星直下点 77.06°N, 118.34°E
打ち上げ日 Aug 31, 2022
運用期間 3 years
タイプ internet

技術仕様

分類 Payload
質量 300.00 kg
乾燥質量 290.00 kg
総質量 300.00 kg
長さ 0.20 m
直径 2.80 m
スパン 9.00 m
形状 Box + pan
製造者 SPXS
バスタイプ Starlink
フェーズステータス In Orbit
所有者/国 SPXS/US

大規模コンステレーション

Loading constellations...